This demonstration page uses our WeatherBlox Daily Observations layout. Learn more.

Left ArrowRight Arrow

39.01783, -85.05884

Hourly Observations for October 29, 2016

Temp ( °F °C ) Dew Point ( °F °C ) Humidity (%) Winds ( mph kmh ) Pressure ( in mb ) Visibility ( mi km ) Precip ( " mm )
12:52 am 00:52 Mostly Cloudy 55 12.8 47 8.3 74 74 SSW 7 11 30.14 1021 10 16 0.00 0.00
1:52 am 01:52 Mostly Cloudy 54 12.2 47 8.3 77 77 SSW 7 11 30.13 1020 10 16 0.00 0.00
2:52 am 02:52 Mostly Cloudy 54 12.2 47 8.3 77 77 SSW 8 13 30.12 1020 10 16 0.00 0.00
3:52 am 03:52 Mostly Cloudy 56 13.3 48 8.9 75 75 S 9 15 30.11 1020 10 16 0.00 0.00
4:52 am 04:52 Mostly Cloudy 56 13.3 48 8.9 75 75 SSW 9 15 30.09 1019 10 16 0.00 0.00
5:52 am 05:52 Mostly Cloudy 57 13.9 48 8.9 72 72 SSW 8 13 30.11 1020 10 16 0.00 0.00
6:52 am 06:52 Mostly Cloudy 56 13.3 48 8.9 75 75 SSW 8 13 30.11 1020 10 16 0.00 0.00
7:52 am 07:52 Partly Cloudy 57 13.9 49 9.4 74 74 SSW 10 17 30.11 1020 10 16 0.00 0.00
8:52 am 08:52 Mostly Cloudy 59 15 51 10.6 75 75 SW 9 15 30.12 1020 10 16 0.00 0.00
9:52 am 09:52 Partly Cloudy 62 16.7 52 11.1 70 70 SSW 10 17 30.12 1020 10 16 0.00 0.00
10:52 am 10:52 Partly Cloudy 66 18.9 54 12.2 65 65 SSW 12 19 30.12 1020 10 16 0.00 0.00
11:52 am 11:52 Partly Cloudy 71 21.7 56 13.3 59 59 SW 15 24 30.11 1020 10 16 0.00 0.00
12:52 pm 12:52 Partly Cloudy 75 23.9 57 13.9 54 54 SW 16 26 30.09 1019 10 16 0.00 0.00
1:52 pm 13:52 Partly Cloudy 78 25.6 57 13.9 48 48 SW 12 19 30.06 1018 10 16 0.00 0.00
2:52 pm 14:52 Partly Cloudy 78 25.6 57 13.9 48 48 SW 12 19 30.04 1017 10 16 0.00 0.00
3:52 pm 15:52 Partly Cloudy 79 26.1 57 13.9 47 47 WSW 14 22 30.02 1017 10 16 0.00 0.00
4:52 pm 16:52 Mostly Cloudy 78 25.6 56 13.3 47 47 WSW 9 15 30.01 1016 10 16 0.00 0.00
5:52 pm 17:52 Partly Cloudy 77 25 55 12.8 47 47 SW 12 19 30.01 1016 10 16 0.00 0.00
6:52 pm 18:52 Mostly Cloudy 74 23.3 54 12.2 50 50 SW 8 13 30.02 1017 10 16 0.00 0.00
7:52 pm 19:52 Mostly Cloudy 72 22.2 54 12.2 53 53 SSW 7 11 30.04 1017 10 16 0.00 0.00
8:52 pm 20:52 Mostly Cloudy 71 21.7 54 12.2 55 55 SW 6 9 30.04 1017 10 16 0.00 0.00
9:52 pm 21:52 Mostly Cloudy 68 20 55 12.8 63 63 SSW 7 11 30.05 1018 10 16 0.00 0.00
10:52 pm 22:52 Mostly Cloudy 64 17.8 55 12.8 73 73 S 6 9 30.05 1018 10 16 0.00 0.00
11:52 pm 23:52 Mostly Cloudy 65 18.3 55 12.8 70 70 SSW 7 11 30.04 1017 10 16 0.00 0.00

Powered by AerisWeather